| time (UTC) | temp C | wind direction | speed KPH | gust KPH | rain 1hr cm | rain 24hr cm | rain mn cm | humidity % | barometer mb |
| 20260901224536 | 13 | 203 | 0.0 | 0.0 | 0.00 | 0.00 | 0.00 | 77 | 1020.5 |
| 20260901223042 | 13 | 203 | 0.0 | 0.0 | 0.00 | 0.00 | 0.00 | 77 | 1020.6 |
| 20260901221531 | 13 | 203 | 0.0 | 0.0 | 0.00 | 0.00 | 0.00 | 77 | 1020.4 |
| 20260901220036 | 13 | 203 | 0.0 | 0.0 | 0.00 | 0.00 | 0.00 | 77 | 1020.4 |
| 20260901214534 | 14 | 203 | 0.0 | 0.0 | 0.00 | 0.00 | 0.00 | 78 | 1020.4 |
| 20260901213039 | 14 | 203 | 0.0 | 0.0 | 0.00 | 0.00 | 0.00 | 78 | 1020.3 |
| 20260901211528 | 14 | 203 | 0.0 | 0.0 | 0.00 | 0.00 | 0.00 | 78 | 1020.1 |
| 20260901210027 | 15 | 203 | 0.0 | 0.0 | 0.00 | 0.00 | 0.00 | 78 | 1020.3 |
| 20260901204526 | 15 | 203 | 0.0 | 0.0 | 0.00 | 0.00 | 0.00 | 79 | 1020.3 |
| 20260901203026 | 15 | 203 | 0.0 | 0.0 | 0.00 | 0.00 | 0.00 | 79 | 1020.2 |
| 20260901201525 | 15 | 203 | 0.0 | 0.0 | 0.00 | 0.00 | 0.00 | 79 | 1020.0 |
| 20260901200024 | 16 | 203 | 0.0 | 0.0 | 0.00 | 0.00 | 0.00 | 79 | 1020.1 |
| 20260901194524 | 16 | 203 | 0.0 | 0.0 | 0.00 | 0.00 | 0.00 | 80 | 1020.1 |
| 20260901193025 | 16 | 203 | 0.0 | 0.0 | 0.00 | 0.00 | 0.00 | 80 | 1020.1 |
| 20260901191523 | 17 | 203 | 0.0 | 0.0 | 0.00 | 0.00 | 0.00 | 80 | 1020.0 |
| 20260901190021 | 17 | 203 | 0.0 | 0.0 | 0.00 | 0.00 | 0.00 | 79 | 1020.0 |
| 20260901184524 | 18 | 204 | 0.0 | 0.0 | 0.00 | 0.00 | 0.00 | 77 | 1020.0 |
| 20260901183020 | 19 | 204 | 0.0 | 0.0 | 0.00 | 0.00 | 0.00 | 74 | 1019.9 |
| 20260901181519 | 20 | 204 | 0.0 | 0.0 | 0.00 | 0.00 | 0.00 | 72 | 1019.8 |
| 20260901180019 | 20 | 204 | 0.0 | 0.0 | 0.00 | 0.00 | 0.00 | 70 | 1019.8 |
| 20260901174518 | 20 | 204 | 0.0 | 0.0 | 0.00 | 0.00 | 0.00 | 69 | 1019.8 |
| 20260901173018 | 21 | 204 | 0.0 | 0.0 | 0.00 | 0.00 | 0.00 | 68 | 1019.6 |
| 20260901171518 | 21 | 204 | 0.0 | 0.0 | 0.00 | 0.00 | 0.00 | 67 | 1019.6 |
| 20260901170016 | 21 | 204 | 0.0 | 0.0 | 0.00 | 0.00 | 0.00 | 68 | 1019.6 |
| 20260901164516 | 20 | 204 | 0.0 | 0.0 | 0.00 | 0.00 | 0.00 | 69 | 1019.7 |
| 20260901163015 | 20 | 204 | 0.0 | 0.0 | 0.00 | 0.00 | 0.00 | 71 | 1019.7 |
| 20260901161515 | 20 | 204 | 0.0 | 0.0 | 0.00 | 0.00 | 0.00 | 72 | 1019.7 |
| 20260901160017 | 20 | 209 | 0.0 | 0.0 | 0.00 | 0.00 | 0.00 | 70 | 1019.7 |
| 20260901154513 | 20 | 209 | 0.0 | 0.0 | 0.00 | 0.00 | 0.00 | 67 | 1019.6 |
| 20260901153013 | 20 | 209 | 0.0 | 0.0 | 0.00 | 0.00 | 0.00 | 67 | 1019.5 |
| 20260901151514 | 21 | 209 | 0.0 | 0.0 | 0.00 | 0.00 | 0.00 | 66 | 1019.6 |
| 20260901150013 | 20 | 219 | 0.0 | 0.0 | 0.00 | 0.00 | 0.00 | 67 | 1019.5 |
| 20260901144511 | 20 | 219 | 0.0 | 0.0 | 0.00 | 0.00 | 0.00 | 68 | 1019.6 |
| 20260901143011 | 20 | 221 | 0.0 | 0.0 | 0.00 | 0.00 | 0.00 | 72 | 1019.7 |
| 20260901141517 | 20 | 240 | 0.0 | 0.0 | 0.00 | 0.00 | 0.00 | 72 | 1019.7 |
| 20260901140009 | 20 | 202 | 0.0 | 0.0 | 0.00 | 0.46 | 0.00 | 70 | 1019.7 |
| 20260901134512 | 20 | 198 | 0.0 | 0.0 | 0.00 | 0.46 | 0.00 | 68 | 1019.6 |
| 20260901133008 | 20 | 267 | 0.0 | 0.0 | 0.00 | 0.46 | 0.00 | 69 | 1019.7 |
| 20260901131507 | 19 | 206 | 0.0 | 0.0 | 0.00 | 0.46 | 0.00 | 72 | 1019.9 |
| 20260901130007 | 19 | 201 | 0.0 | 0.0 | 0.00 | 0.46 | 0.00 | 72 | 1019.9 |
| 20260901124507 | 18 | 201 | 0.0 | 0.0 | 0.00 | 0.46 | 0.00 | 73 | 1019.9 |
| 20260901123008 | 19 | 231 | 0.0 | 0.0 | 0.00 | 0.46 | 0.00 | 72 | 1020.0 |
| 20260901121505 | 20 | 205 | 0.0 | 20.9 | 0.00 | 0.46 | 0.00 | 69 | 1019.8 |
| 20260901120004 | 21 | 217 | 0.0 | 0.0 | 0.00 | 0.48 | 0.00 | 68 | 1019.6 |
| 20260901114503 | 21 | 223 | 0.0 | 0.0 | 0.00 | 0.48 | 0.00 | 69 | 1019.6 |
| 20260901113001 | 20 | 197 | 0.0 | 0.0 | 0.00 | 0.48 | 0.00 | 71 | 1019.7 |
| 20260901111502 | 20 | 204 | 0.0 | 12.9 | 0.00 | 0.48 | 0.00 | 71 | 1019.8 |
| 20260901110059 | 20 | 194 | 0.0 | 0.0 | 0.00 | 0.48 | 0.00 | 78 | 1019.8 |
| 20260901104557 | 20 | 194 | 0.0 | 0.0 | 0.00 | 0.48 | 0.00 | 77 | 1019.9 |
| 20260901103104 | 20 | 193 | 0.0 | 0.0 | 0.00 | 0.48 | 0.00 | 76 | 1019.7 |
| 20260901101554 | 20 | 194 | 0.0 | 0.0 | 0.00 | 0.48 | 0.00 | 74 | 1019.7 |
| 20260901100055 | 20 | 196 | 0.0 | 0.0 | 0.00 | 0.48 | 0.00 | 75 | 1019.8 |
| 20260901094551 | 20 | 196 | 0.0 | 0.0 | 0.00 | 0.48 | 0.00 | 75 | 1019.9 |
| 20260901093049 | 20 | 196 | 0.0 | 0.0 | 0.00 | 0.48 | 0.00 | 75 | 1020.0 |
| 20260901091553 | 20 | 196 | 0.0 | 0.0 | 0.00 | 0.48 | 0.00 | 77 | 1019.9 |
| 20260901090042 | -17 | 0.0 | 0.0 | 0.00 | 0.56 | 0.00 | 1019.7 | ||
| 20260901084538 | -17 | 0.0 | 0.0 | 0.00 | 0.56 | 0.00 | 1019.8 | ||
| 20260901083034 | -17 | 0.0 | 0.0 | 0.00 | 0.56 | 0.00 | 1019.9 | ||
| 20260901081537 | -17 | 0.0 | 0.0 | 0.00 | 0.56 | 0.00 | 1019.8 | ||
| 20260901080028 | -17 | 0.0 | 0.0 | 0.00 | 0.56 | 0.00 | 1019.6 | ||
| 20260901074520 | -17 | 0.0 | 0.0 | 0.00 | 0.56 | 0.00 | 1019.5 | ||
| 20260901073018 | -17 | 0.0 | 0.0 | 0.00 | 0.56 | 0.00 | 1019.4 | ||
| 20260901071512 | -17 | 0.0 | 0.0 | 0.00 | 0.56 | 0.00 | 1019.4 | ||
| 20260901070007 | -17 | 0.0 | 0.0 | 0.00 | 0.56 | 0.00 | 1019.4 | ||
| 20260901064502 | -17 | 0.0 | 0.0 | 0.00 | 0.56 | 0.00 | 1019.5 | ||
| 20260901063059 | -17 | 0.0 | 0.0 | 0.00 | 0.56 | 0.00 | 1019.4 | ||
| 20260901061554 | -17 | 0.0 | 0.0 | 0.00 | 0.56 | 0.00 | 1019.4 | ||
| 20260901060051 | 15 | 197 | 0.0 | 0.0 | 0.00 | 0.56 | 0.00 | 77 | 1019.2 |
| 20260901054551 | 15 | 197 | 0.0 | 0.0 | 0.00 | 0.56 | 0.00 | 77 | 1019.1 |
| 20260901053052 | 15 | 197 | 0.0 | 0.0 | 0.00 | 0.56 | 0.00 | 77 | 1018.9 |
| 20260901051545 | 15 | 197 | 0.0 | 0.0 | 0.00 | 0.56 | 0.00 | 77 | 1018.8 |
| 20260901050044 | 15 | 197 | 0.0 | 0.0 | 0.00 | 0.56 | 0.00 | 77 | 1018.6 |
| 20260901044542 | 15 | 197 | 0.0 | 0.0 | 0.00 | 0.56 | 0.00 | 76 | 1018.6 |
| 20260901043041 | 15 | 197 | 0.0 | 0.0 | 0.00 | 0.56 | 0.00 | 76 | 1018.4 |
| 20260901041544 | 14 | 197 | 0.0 | 0.0 | 0.00 | 0.56 | 0.00 | 76 | 1018.3 |
| 20260901040047 | 14 | 197 | 0.0 | 0.0 | 0.00 | 0.56 | 0.00 | 76 | 1018.2 |
| 20260901034537 | 14 | 197 | 0.0 | 0.0 | 0.00 | 0.56 | 0.00 | 76 | 1018.2 |
| 20260901033037 | 14 | 197 | 0.0 | 0.0 | 0.00 | 0.56 | 0.00 | 76 | 1018.2 |
| 20260901031536 | 14 | 197 | 0.0 | 0.0 | 0.00 | 0.56 | 0.00 | 76 | 1018.1 |
| 20260901030035 | 14 | 197 | 0.0 | 0.0 | 0.00 | 0.79 | 0.00 | 76 | 1018.2 |
| 20260901024535 | 13 | 198 | 0.0 | 0.0 | 0.00 | 0.79 | 0.00 | 76 | 1018.2 |
| 20260901023033 | 13 | 198 | 0.0 | 0.0 | 0.00 | 0.79 | 0.00 | 76 | 1018.1 |
| 20260901021533 | 13 | 198 | 0.0 | 0.0 | 0.00 | 0.79 | 0.00 | 76 | 1017.9 |
| 20260901020030 | 13 | 198 | 0.0 | 0.0 | 0.00 | 0.79 | 0.00 | 76 | 1017.9 |
| 20260901014529 | 13 | 198 | 0.0 | 0.0 | 0.00 | 0.79 | 0.00 | 76 | 1017.8 |
| 20260901013040 | 13 | 198 | 0.0 | 0.0 | 0.00 | 0.79 | 0.00 | 77 | 1017.7 |
| 20260901011535 | 13 | 198 | 0.0 | 0.0 | 0.00 | 0.79 | 0.00 | 77 | 1017.7 |
| 20260901010024 | 14 | 198 | 0.0 | 0.0 | 0.00 | 0.79 | 0.00 | 77 | 1017.7 |
| 20260901004522 | 14 | 198 | 0.0 | 0.0 | 0.00 | 0.79 | 0.00 | 77 | 1017.6 |
| 20260901003020 | 14 | 198 | 0.0 | 0.0 | 0.00 | 0.79 | 0.00 | 77 | 1017.6 |
| 20260901001518 | 15 | 198 | 0.0 | 0.0 | 0.00 | 0.79 | 0.00 | 77 | 1017.5 |
| 20260901000017 | 15 | 198 | 0.0 | 0.0 | 0.00 | 0.79 | 0.00 | 77 | 1017.6 |
| 20260831234515 | 15 | 198 | 0.0 | 0.0 | 0.00 | 0.79 | 0.00 | 77 | 1017.5 |
| 20260831233014 | 15 | 198 | 0.0 | 0.0 | 0.00 | 0.79 | 0.00 | 77 | 1017.4 |
| 20260831231514 | 15 | 198 | 0.0 | 0.0 | 0.00 | 0.79 | 0.00 | 77 | 1017.5 |
| 20260831230017 | 15 | 198 | 0.0 | 0.0 | 0.00 | 0.79 | 0.00 | 78 | 1017.5 |